Location: Newark
(48.5156°N, 1.8989°W)
Time: 16:52:55
(UTC+00:00)

Transit 4A - Pass Details

Date: 02 December 2019
Orbit: 870 x 975 km, 66.8° (Epoch: 06 December)

Event Time Altitude Azimuth Distance (km) Brightness Sun altitude
Rises 18:53:59 0° 204° (SSW) 3,620 11.4 -25.6°
Reaches altitude 10° 18:56:33 10° 202° (SSW) 2,665 10.6 -26.0°
Enters shadow 19:02:38 69° 125° (SE) 995 7.8 -27.0°
